Regional Weather Roundup
Issued by NWS Kansas City/Pleasant Hill, MO

Home | Current Version | Previous Version | Graphics & Text | Print | Product List | Glossary Off
Versions: 1 2 3 4 5 6 7 8 9 10 11 12 13 14 15 16 17 18 19 20 21 22 23 24 25 26 27 28 29 30 31 32 33 34 35 36 37 38 39 40 41 42 43 44 45 46 47 48 49 50

000
ASUS43 KEAX 060211
RWREAX

WEATHER ROUNDUP FOR EASTERN KANSAS AND NORTHWEST MISSOURI
NATIONAL WEATHER SERVICE KANSAS CITY/PLEASANT HILL MO
900 PM CDT TUE MAY 05 2015

KSZ040-057-103>105-MOZ028-029-037-043-060300-
...KANSAS CITY METROPOLITAN AREA...

CITY           SKY/WX    TMP DP  RH WIND       PRES   REMARKS
K.C. INTL      TSTM      65  61  87 SW15      30.05R
K.C. DOWNTOWN  CLOUDY    72  59  63 W8        30.02R
LEES SUMMIT    CLOUDY    69  60  73 E7        30.03S
OLATHE - IXD   LGT RAIN  65  63  93 E6        30.03F
OLATHE - OJC   LGT RAIN  65  64  97 S6        30.03R FOG
LAWRENCE       LGT RAIN  65  63  93 E8        30.02R

$$

MOZ001>008-011>017-020>025-030>033-038>040-044>046-053-054-060300-
...NORTHERN AND CENTRAL MISSOURI...

CITY           SKY/WX    TMP DP  RH WIND       PRES   REMARKS
ST. JOSEPH     LGT RAIN  65  61  87 S6        30.02S
MOSBY            N/A     72  59  64 E5        30.02S
HARRISONVILLE  CLOUDY    70  63  78 E5        30.05R
WARRENSBURG    CLOUDY    66  61  82 E6        30.04R
WHITEMAN AFB   CLOUDY    66  61  83 E8        30.04R
CLINTON        CLOUDY    72  64  78 SE6       30.05R
SEDALIA        CLOUDY    68  62  81 E5        30.07R
WARSAW         NOT AVBL
MARSHALL       CLOUDY    66  64  94 E7        30.07R
CHILLICOTHE      N/A     72  56  57 SE6       30.05S
MOBERLY        MOCLDY    68  57  68 SE5       30.09S
KIRKSVILLE     MOCLDY    68  60  75 S8        30.08S

$$

MOZ041-047>049-056>058-063>065-088>090-097-060300-
...EASTERN AND SOUTHERN MISSOURI...

CITY           SKY/WX    TMP DP  RH WIND       PRES   REMARKS
ST. LOUIS INTL MOCLDY    78  55  44 SE9       30.13R
SPIRIT OF STL  CLEAR     68  59  73 SE3       30.11R
COLUMBIA       MOCLDY    69  63  81 E7        30.08S
JEFFERSON CITY PTCLDY    70  63  78 SE7       30.07R
MEXICO         PTCLDY    70  64  83 CALM      30.09S
HANNIBAL       CLOUDY    73  55  53 SE3       30.10S
ROLLA          CLEAR     70  55  59 SE8       30.10R
LEBANON        PTCLDY    70  55  60 SE5       30.10S
OSAGE BEACH    PTCLDY    73  54  49 SE3       30.08S
SPRINGFIELD    PTCLDY    72  55  55 SE10      30.06R
BRANSON        MOCLDY    72  54  53 SE9       30.08S
NEVADA         MOCLDY    70  57  64 SE9       30.04R
JOPLIN         MOCLDY    72  54  53 SE7       30.02R
WEST PLAINS    CLEAR     66  53  63 CALM      30.13R

$$

IAZ060-094-KSZ022-034>040-054-083-096-NEZ052-066-093-060300-
...KANSAS...SOUTHEAST NEBRASKA AND IOWA...

CITY           SKY/WX    TMP DP  RH WIND       PRES   REMARKS
TOPEKA         CLOUDY    65  61  87 SE13      30.00R
MANHATTAN      LGT RAIN  69  61  75 SE8       29.93S
EMPORIA        LGT RAIN  67  62  84 SE14      29.97R
CHANUTE        CLOUDY    67  65  93 SE7       30.00R
WICHITA        CLOUDY    64  60  87 SE13      29.92R
OMAHA          CLOUDY    72  59  63 SE12      29.97S
LINCOLN        CLOUDY    72  55  55 SE14G23   29.95R
FALLS CITY     CLOUDY    65  60  84 SE10      29.99R
LAMONI         CLOUDY    73  58  59 SE7       30.04R
DES MOINES     CLOUDY    74  57  55 SE7       30.04S

$$




USA.gov is the U.S. government's official web portal to all federal, state and local government web resources and services.